Location: Zapote
(9.9191°N, 84.0597°W)
Time: 11:01:09
(UTC-06:00)

Courier 1B Rocket - Pass Details

Date: 08 March 2021
Orbit: 920 x 1202 km, 28.2° (Epoch: 12 April)

Event Time Altitude Azimuth Distance (km) Brightness Sun altitude
Rises 18:10:58 0° 303° (WNW) 3,985 9.2 -6.7°
Reaches altitude 10° 18:13:46 10° 307° (NW) 3,056 8.4 -7.4°
Maximum altitude 18:21:19 60° 26° (NNE) 1,343 5.6 -9.2°
Enters shadow 18:28:36 12° 104° (ESE) 2,992 6.9 -11.0°
